BIEG W STRONĘ ŻYCIA

Organizator/ Organizer:
Fundacja „W Stronę Życia”
Data/ Date:
2018-09-08
Miejsce/ Place:
Bydgoszcz
Dystans/ Distance:
5 km
Zgłoszonych/ Registered:
465
Wystartowało/ Started:
375
Nie ukończyło/ Not finished:
0
Ukończyło/ Finished:
375
Na trasie/ On track:
0

Klasyfikacja/ Classiffication: Wszyscy

Wyniki nieoficjalne !!!
Pełne wyniki/ Full Results : PDF | CSV
Wyniki uproszczone/ Simple results : PDF | PDF2 | CSV
 
Klasyfikacje w punktach pomiarowych/ Classification for time points: Meta
Klasyfikacje wg kategorii/ Classification by category: Wszyscy | K-Open | M-Open

Msc/ RnkZawodnik/ NameNumer/ BibKlub/ TeamMiejscowość/ CityKraj/ CountryKategoria/ CategoryMkat/ CatRnkK/M/ W/MCzas startu/Start timeCzas
netto
5km
Czas
brutto
5km
Różn/ GapTempo
min/km
Tempo
km/h
       
1KULPA Michał 366GMD ZYKANBUKOWIECM-Open1M 100:00:0300:17:32.5500:17:36.15 3:3017.1
2GIL Waldemar 322BOŻENKOWOM-Open2M 200:00:0300:19:08.6500:19:12.60+00:01:363:4915.7
3LIPIŃSKI Mariusz 270KWIDZYNM-Open3M 300:00:0400:19:14.2500:19:18.50+00:01:413:5015.6
4OLEJNIK Krzysztof 181BYDGOSZCZM-Open4M 400:00:0300:19:36.5000:19:40.30+00:02:033:5515.3
5TACIAK Dawid 189BYDGOSZCZM-Open5M 500:00:0900:19:39.4500:19:48.55+00:02:063:5515.3
6PORZYCH Rafał 352RAFSON.TVNIEMCZM-Open6M 600:00:0300:19:42.0500:19:45.25+00:02:093:5615.2
7KAWIECKI Paweł 235AKADEMIAMUZYCZNABIEGANIDZICAM-Open7M 700:00:0400:19:58.3500:20:02.55+00:02:253:5915
8KNOTHE Adam 401BUDSTOL INVESTNIEMCZM-Open8M 800:00:0400:20:00.7500:20:05.15+00:02:284:0015
9PAWĘTA Marcin 330BYDGOSZCZM-Open9M 900:00:0500:20:01.9500:20:07.10+00:02:294:0015
10NAGORZYSKI Arkadiusz 7BIEGAM WSPIERAM MOTYWUJĘBYDGOSZCZM-Open10M 1000:00:0400:20:04.1500:20:08.95+00:02:314:0015
11LEŚ Krzysztof 297TORUŃM-Open11M 1100:00:0400:20:25.3500:20:29.75+00:02:524:0514.7
12GRUSZECZKA Jacek 219POLSKA GRUPA BIEGOWAGRUDZIĄDZM-Open12M 1200:00:0800:20:44.5000:20:52.65+00:03:114:0814.5
13STANIEC Tomasz 333BYDGOSZCZM-Open13M 1300:00:0400:20:46.9000:20:51.20+00:03:144:0914.4
14SZENK Marta 338BYDGOSZCZK-Open1K 100:00:0300:20:54.6000:20:58.15+00:03:224:1114.3
15KOWALSKI Jacek 143BYDGOSZCZM-Open14M 1400:00:1300:21:06.2500:21:19.65+00:03:334:1314.2
16KOZIŃSKI Marek 413RUN BYDGOSZCZOSIELSKOM-Open15M 1500:00:0500:21:20.7000:21:26.35+00:03:484:1614.1
17ZWIEWKA Adam 237BIAŁE BŁOTAM-Open16M 1600:00:0500:21:33.5000:21:39.00+00:04:004:1813.9
18GIERACH Marcin 437G-TEAMNIEMCZM-Open17M 1700:00:0400:21:33.6500:21:37.75+00:04:014:1813.9
19RÓŻOWICZ Aleksandra 112BYDGOSZCZK-Open2K 200:00:0700:21:35.6500:21:43.10+00:04:034:1913.9
20STANISZEWSKI Krzysztof 421ŚWIECIEM-Open18M 1800:00:0700:21:39.3000:21:46.80+00:04:064:1913.9
21OLSZEWSKA Adrianna 291MROCZAK-Open3K 300:00:0600:21:44.5500:21:50.95+00:04:124:2013.8
22SMARZYŃSKI Sebastian 337PRABUTYM-Open19M 1900:00:2000:21:48.4000:22:08.90+00:04:154:2113.8
23SZYSZKA Radosław 167KEEEPERBYDGOSZCZM-Open20M 2000:00:0300:21:53.4500:21:56.75+00:04:204:2213.7
24BARCZAK Tomasz 71BYDGOSZCZM-Open21M 2100:00:0500:22:05.1500:22:10.30+00:04:324:2513.6
25JANKOWSKI Marcin 449M-Open22M 2200:00:0800:22:10.3000:22:18.70+00:04:374:2613.5
26FOKSIŃSKI Filip 313STAFF ENEA BYDGOSZCZ TRIATHLONBYDGOSZCZM-Open23M 2300:00:0500:22:14.7500:22:20.70+00:04:424:2713.5
27GATTNER Robert 103ZIELONA GÓRAM-Open24M 2400:00:1900:22:23.7000:22:43.40+00:04:514:2813.4
28KUJAWA Daniel 15956. BAZA LOTNICZAINOWROCŁAWM-Open25M 2500:00:1100:22:37.1000:22:48.55+00:05:044:3113.3
29AUGUSTYNOWICZ Andrzej 320RCI BYDGOSZCZBYDGOSZCZM-Open26M 2600:00:0800:22:41.0500:22:49.15+00:05:084:3213.2
30MAZUR Dawid 301HEROBOX ŚWIECIEŚWIECIEM-Open27M 2700:00:1400:22:56.1500:23:10.40+00:05:234:3513.1
31CHOLEWIŃSKI Mateusz 369KRUSZYNM-Open28M 2800:00:1800:23:03.2000:23:22.05+00:05:304:3613
32NAPIERAJ Sonia 196ALBANNERSBYDGOSZCZK-Open4K 400:00:1200:23:05.2000:23:18.15+00:05:324:3713
33ŚWIATLAK Piotr 264SOWA BYDGOSZCZBYDGOSZCZM-Open29M 2900:00:0600:23:12.4000:23:19.00+00:05:394:3812.9
34SOBCZAK Rafał 456M-Open30M 3000:00:0600:23:13.9000:23:20.50+00:05:414:3812.9
35MICHALSKA Daria 211BYDGOSZCZK-Open5K 500:00:0900:23:19.1500:23:28.95+00:05:464:3912.9
36FIECEK Łukasz 243BYDGOSZCZM-Open31M 3100:00:1000:23:21.3000:23:31.50+00:05:484:4012.8
37AFELT Jarosław 39BYDGOSZCZM-Open32M 3200:00:2700:23:35.8500:24:03.80+00:06:034:4312.7
38CIEŚLEWICZ Karol 125FABER EST QUISQUE SUAE FORTUNAEBYDGOSZCZM-Open33M 3300:00:1900:23:42.2500:24:01.35+00:06:094:4412.7
39NIZIOŁ Marcin 405INOWROCŁAWM-Open34M 3400:00:1000:23:43.1000:23:53.75+00:06:104:4412.6
40BOROWSKI Radosław 262MLKS KRAJNA SĘPÓLNOBYDGOSZCZM-Open35M 3500:00:1600:23:43.8500:24:00.05+00:06:114:4412.6
41WIŚNIEWSKI Leszek 370BYDGOSZCZM-Open36M 3600:00:2600:23:46.8500:24:13.05+00:06:144:4512.6
42SAWIŃSKI Łukasz 202KCYNIAM-Open37M 3700:00:0800:23:47.5500:23:55.75+00:06:154:4512.6
43BIERNACKA Magdalena 188OSIELSKOK-Open6K 600:00:0500:23:47.7500:23:53.70+00:06:154:4512.6
44OLECHNOWICZ Tomasz 428SMUKAŁABYDGOSZCZM-Open38M 3800:00:0900:23:50.3500:23:59.80+00:06:174:4612.6
45KRUPA Tomasz 134INOWROCŁAWM-Open39M 3900:00:1100:23:51.6000:24:02.95+00:06:194:4612.6
46MINZYANOV Anton 361BYDGOSZCZM-Open40M 4000:00:0600:23:54.8000:24:01.70+00:06:224:4712.5
47OLEJNICZAK Marcin 60TORUŃM-Open41M 4100:01:1100:23:56.4000:25:07.60+00:06:234:4712.5
48SAK Joanna 307DECATHLON TEAM INOWROCŁAWINOWROCŁAWK-Open7K 700:00:0900:23:56.8000:24:06.25+00:06:244:4712.5
49TATERA Michał 57BYDGOSZCZM-Open42M 4200:00:1200:23:59.6500:24:11.70+00:06:274:4712.5
50POPIELARZ Robert 450M-Open43M 4300:00:0700:24:03.1000:24:11.05+00:06:304:4812.5
51TYMIŃSKI Przemysław 362LA RIVE TEAMGRUDZIĄDZM-Open44M 4400:00:0500:24:03.1500:24:08.15+00:06:304:4812.5
52REGLIŃSKI Krzysiek 133WARSZAWAM-Open45M 4500:00:1600:24:05.4000:24:22.05+00:06:324:4912.4
53PODSIEDLIK Zuzanna 136BYDGOSZCZK-Open8K 800:00:1200:24:16.1500:24:28.40+00:06:434:5112.4
54GONDEK Krzysztof 363NAKŁO NAD NOTECIĄM-Open46M 4600:00:0600:24:17.4500:24:24.30+00:06:444:5112.3
55BIRSKI Marcin 199NIEMCZM-Open47M 4700:00:1000:24:22.9000:24:33.10+00:06:504:5212.3
56MORZYK Michał 331979OSIELSKOM-Open48M 4800:00:2700:24:25.7500:24:53.15+00:06:534:5312.3
57TWARDOWSKI Bartosz 173BYDGOSZCZM-Open49M 4900:00:3300:24:28.2000:25:01.95+00:06:554:5312.3
58MUĆKO Bartosz 145BYDGOSZCZM-Open50M 5000:00:0500:24:30.2500:24:35.40+00:06:574:5412.2
59KOCISZEWSKI Marek 292BYDGOSZCZM-Open51M 5100:00:4200:24:33.5500:25:16.50+00:07:014:5412.2
60OZDOBA Agnieszka 403BYDGOSZCZK-Open9K 900:00:1200:24:35.4500:24:47.90+00:07:024:5512.2
61GRACZYK Przemysław 203BYDGOSZCZM-Open52M 5200:00:2700:24:37.0000:25:04.40+00:07:044:5512.2
62KIJEWSKI Maciej 198KABEL TEAM BYDGOSZCZBYDGOSZCZM-Open53M 5300:00:3000:24:37.3000:25:08.00+00:07:044:5512.2
63KLIMKIEWICZ Tomasz 383BYDGOSZCZM-Open54M 5400:00:1100:24:38.7000:24:50.20+00:07:064:5512.2
64WELSBERG Bartosz 287BYDGOSZCZM-Open55M 5500:00:3000:24:45.8500:25:16.55+00:07:134:5712.1
65FERENS Paweł 260BBLINOWROCŁAWINOWROCŁAWM-Open56M 5600:00:0900:24:47.6500:24:57.55+00:07:154:5712.1
66CICHOŃSKA - BAZAK Marzena 374BYDGOSZCZK-Open10K 1000:00:0800:24:53.2000:25:01.50+00:07:204:5812.1
67MARCINKOWSKI Artur 53KORONOWOM-Open57M 5700:00:1200:24:53.4000:25:05.50+00:07:204:5812.1
68RUDEWICZ Monika 90BYDGOSZCZK-Open11K 1100:00:0800:24:54.7000:25:03.20+00:07:224:5912
69POWIERŻA Maciej 187OSIEM-Open58M 5800:00:1500:24:55.9000:25:11.35+00:07:234:5912
70JANKOWSKA Agnieszka 208MAKSYMILIANOWOK-Open12K 1200:00:1700:24:56.4000:25:13.80+00:07:234:5912
71RATAJCZAK Jakub 372BYDGOSZCZM-Open59M 5900:00:1300:24:56.8000:25:09.80+00:07:244:5912
72KOLSKI Michał 236INOWROCŁAWM-Open60M 6000:00:1000:24:57.0000:25:07.20+00:07:244:5912
73PACZKOWSKI Mirosław 251CB163BYDGOSZCZM-Open61M 6100:00:4200:25:00.2500:25:42.45+00:07:275:0012
74KALINOWSKA Anna 68UKS OMEGA GRUTAGRUDZIĄDZK-Open13K 1300:00:0500:25:04.8000:25:10.45+00:07:325:0112
75PALUCH Karol 445M-Open62M 6200:00:0000:25:06.6000:25:06.60+00:07:345:0112
76NOWICKI Olgierd 326BYDGOSZCZM-Open63M 6300:00:3100:25:07.6500:25:39.10+00:07:355:0111.9
77MUSIELEWSKA Daria 373BYDGOSZCZK-Open14K 1400:00:0700:25:08.3000:25:15.30+00:07:355:0111.9
78SAWICZ-ŁUŃSKA Emilia 231ZŁOTÓWK-Open15K 1500:00:0600:25:09.2500:25:15.85+00:07:365:0111.9
79GROBELNA Angelika 234BYDGOSZCZ NA STARTNIEMCZK-Open16K 1600:00:3700:25:10.8000:25:48.45+00:07:385:0211.9
80MAZUREK Tyberiusz 327HEROBOX ŚWIECIEŚWIECIEM-Open64M 6400:00:1300:25:13.9000:25:27.60+00:07:415:0211.9
81PŁACZKIEWICZ Robert 298SOL3BYDGOSZCZM-Open65M 6500:00:2100:25:20.1000:25:41.40+00:07:475:0411.8
82FRĄCKOWIAK Waldemar 118BYDGOSZCZM-Open66M 6600:00:1800:25:22.6000:25:41.10+00:07:505:0411.8
83PĄCZEK Agata 123SZUBINK-Open17K 1700:00:0900:25:24.1000:25:33.30+00:07:515:0411.8
84BUCZKOWSKI Krzysztof 2RUN PASJANIEMCZM-Open67M 6700:00:2000:25:24.2000:25:44.20+00:07:515:0411.8
85RODTKO Paweł 447M-Open68M 6800:00:4000:25:25.0500:26:05.85+00:07:525:0511.8
86KRAWCZYK Przemysław 263CROSSFIT TORUŃTORUŃM-Open69M 6900:00:5600:25:28.3500:26:25.05+00:07:555:0511.8
87ŚWIATLAK Marek 356BYDGOSZCZM-Open70M 7000:00:3700:25:30.3500:26:08.15+00:07:575:0611.8
88MAZUREK Anna 347HEROBOXŚWIECIEK-Open18K 1800:00:1400:25:34.5000:25:49.00+00:08:015:0711.7
89BUTOWSKI Michał 154SEN O VICTORIIBYDGOSZCZM-Open71M 7100:00:2100:25:35.0000:25:56.70+00:08:025:0711.7
90DOBOSZ Maciej 399LEPIEJJUŻBYŁONIEMCZM-Open72M 7200:00:3100:25:40.5500:26:12.50+00:08:085:0811.7
91MOCHOL Arkadiusz 192BYDGOSZCZM-Open73M 7300:00:2000:25:40.9500:26:01.90+00:08:085:0811.7
92PAWLEWSKA Klaudia 122SPORTWAYBYDGOSZCZK-Open19K 1900:00:1200:25:41.2000:25:53.85+00:08:085:0811.7
93SMOCZYŃSKI Marek 358MBC TEAMTUCHOLAM-Open74M 7400:00:1800:25:41.2000:26:00.10+00:08:085:0811.7
94KABACIŃSKI Jarosław 355BYDGOSZCZM-Open75M 7500:00:2000:25:41.2000:26:01.50+00:08:085:0811.7
95POTRZEBOWSKA Agata 26DEAFBYDGOSZCZK-Open20K 2000:00:0800:25:42.9000:25:51.70+00:08:105:0811.7
96KUBALEWSKI Paweł 247BYDGOSZCZM-Open76M 7600:00:1400:25:48.3500:26:03.25+00:08:155:0911.6
97KWIATKOWSKI Jakub 412NIEMCZM-Open77M 7700:00:1100:25:48.5500:26:00.00+00:08:165:0911.6
98KAMASZ Dawid 153BYDGOSZCZM-Open78M 7800:00:1400:25:49.4000:26:04.30+00:08:165:1011.6
99HERMANOWSKI Łukasz 350BYDGOSZCZM-Open79M 7900:00:5100:25:50.5500:26:41.95+00:08:185:1011.6
100GRUNDKOWSKI Oskar 335BYDGOSZCZM-Open80M 8000:00:0700:25:53.6500:26:00.95+00:08:215:1011.6
101JASINIECKI Wojciech 357BYDGOSZCZM-Open81M 8100:00:1600:25:58.5000:26:14.65+00:08:255:1111.6
102SOBOLEWSKA Aleksandra 300BYDGOSZCZK-Open21K 2100:00:0600:25:59.7000:26:05.85+00:08:275:1111.5
103SOBOL Magdalena 124NAKŁO NAD NOTECIĄK-Open22K 2200:00:0500:26:01.0000:26:06.10+00:08:285:1211.5
104GRZECA Jakub 174PRUSZCZM-Open82M 8200:00:3100:26:02.1000:26:33.90+00:08:295:1211.5
105KIEŁPIKOWSKI Marcin 312BYDGOSZCZM-Open83M 8300:00:2400:26:05.8000:26:29.85+00:08:335:1311.5
106GABRICH Żanetta 384BYDGOSZCZK-Open23K 2300:00:1600:26:06.3000:26:22.65+00:08:335:1311.5
107MIĄSKO Paweł 360BYDGOSZCZM-Open84M 8400:00:2000:26:10.2000:26:30.60+00:08:375:1411.5
108MATEJA Piotr 296BYDGOSZCZM-Open85M 8500:00:2600:26:12.1500:26:39.05+00:08:395:1411.4
109RADECKI Maciej 161CYBORGIBYDGOSZCZM-Open86M 8600:00:2600:26:12.6000:26:38.80+00:08:405:1411.5
110GLINKOWSKI Dariusz 105BYDGOSZCZM-Open87M 8700:00:2500:26:14.8000:26:40.30+00:08:425:1511.4
111GŁOWIŃSKI Piotr 465M-Open88M 8800:00:5100:26:15.1000:27:06.10+00:08:425:1511.4
112TOMASZEK Sebastian 376BYDGOSZCZM-Open89M 8900:00:0900:26:15.5500:26:24.85+00:08:435:1511.4
113CHRUPAŁA Rafał 267BYDGOSZCZM-Open90M 9000:00:3700:26:16.2500:26:53.70+00:08:435:1511.4
114SIMIŃSKI Mariusz 150MORSY Z GRUDZIĄDZAGRUDZIĄDZM-Open91M 9100:00:0700:26:20.4500:26:27.70+00:08:475:1611.4
115ZGÓRSKI Maciej 138WQURW_TEAMBYDGOSZCZM-Open92M 9200:00:1200:26:30.5000:26:43.00+00:08:575:1811.3
116BARTKOWSKA Ewelina 414TORUŃK-Open24K 2400:00:1800:26:35.2000:26:54.00+00:09:025:1911.3
117GACKOWSKI Adam 466M-Open93M 9300:00:1700:26:35.4000:26:53.15+00:09:025:1911.3
118POLACZYK Tomasz 274BYDGOSZCZM-Open94M 9400:00:1800:26:36.8000:26:54.80+00:09:045:1911.3
119KUJAWA Przemysław 10GOŚCIERADZM-Open95M 9500:00:4300:26:41.9500:27:25.85+00:09:095:2011.2
120SZAKALSKI Michał 386BYDGOSZCZM-Open96M 9600:00:2100:26:44.2500:27:05.30+00:09:115:2011.2
121LEWANDOWSKI Damian 256BYDGOSZCZM-Open97M 9700:00:3200:26:46.7500:27:18.80+00:09:145:2111.2
122DZIATKOWICZ Radosław 180INOWROCŁAWM-Open98M 9800:00:1200:26:49.1000:27:01.20+00:09:165:2111.2
123CZERWIŃSKA Joanna 185BYDGOSZCZK-Open25K 2500:00:2100:26:49.5500:27:10.80+00:09:175:2111.2
124BRZEZIŃSKA Marta 353BYDGOSZCZK-Open26K 2600:00:1700:26:52.2500:27:09.70+00:09:195:2211.2
125CIEŚLAK Hanna 385BYDGOSZCZK-Open27K 2700:00:2100:27:03.7500:27:24.75+00:09:315:2411.1
126BORZYSZKOWSKI Grzegorz 205STARY FORDONBYDGOSZCZM-Open99M 9900:00:1100:27:04.7000:27:15.90+00:09:325:2411.1
127AFELT Luiza 38BYDGOSZCZK-Open28K 2800:00:1000:27:12.3500:27:23.25+00:09:395:2611
128GŁOGOWSKI Mateusz 37BYDGOSZCZM-Open100M 10000:00:2000:27:14.9000:27:35.10+00:09:425:2711
129SZPOJDA Filip 380MOCHLEM-Open101M 10100:00:1800:27:15.3500:27:34.20+00:09:425:2711
130BURNICKI Mariusz 108BYDGOSKI KLUB MORSÓWBYDGOSZCZM-Open102M 10200:00:0900:27:16.4500:27:26.15+00:09:435:2711
131URBANIAK Karol 131BYDGOSZCZM-Open103M 10300:00:1100:27:16.4500:27:27.80+00:09:435:2711
132KOZAKIEWICZ Marcin 128NAKŁO NAD NOTECIĄM-Open104M 10400:00:1600:27:16.9000:27:32.95+00:09:445:2711
133KUJDA Dorota 115OSIELSKOK-Open29K 2900:00:2000:27:17.2000:27:37.20+00:09:445:2711
134ORLICKA Donata 381ZŁAWIEŚ WIELKAK-Open30K 3000:00:1800:27:21.4000:27:39.75+00:09:485:2811
135PALUSZAK Łukasz 84INOWROCŁAWM-Open105M 10500:00:3600:27:23.7000:27:59.80+00:09:515:2811
136SZKARPIETINA Anna 135BRZEŚĆ KUJAWSKIK-Open31K 3100:00:1700:27:27.2000:27:45.05+00:09:545:2910.9
137ZIÓŁKOWSKI Łukasz 261BRZEŚĆ KUJAWSKIM-Open106M 10600:00:1700:27:28.4500:27:45.85+00:09:555:2910.9
138SZYNWELSKA Marlena 155BYDGOSZCZK-Open32K 3200:00:2500:27:30.8500:27:56.50+00:09:585:3010.9
139MICHALAK Adam 311BYDGOSZCZM-Open107M 10700:00:2200:27:31.0500:27:53.70+00:09:585:3010.9
140WALCZAK Tomasz 371ŚWIECIEM-Open108M 10800:00:3700:27:33.5000:28:10.75+00:10:005:3010.9
141NIKOŁAJCZYK Agnieszka 280SWIECIEK-Open33K 3300:00:3600:27:34.2500:28:10.45+00:10:015:3010.9
142BŁASZKIEWICZ Zbigniew 467M-Open109M 10900:00:3100:27:34.6000:28:06.35+00:10:025:3110.9
143GADZIŃSKA Aleksandra 27989-120 POTULICEK-Open34K 3400:00:1600:27:38.4500:27:54.85+00:10:055:3110.9
144KLIMCZAK Justyna 342RUN PASJABYDGOSZCZK-Open35K 3500:00:3400:27:39.3000:28:13.80+00:10:065:3110.8
145BELTER Andrzej 375ŻOŁĘDOWOM-Open110M 11000:00:2600:27:39.6500:28:06.60+00:10:075:3210.8
146DŁUGOŃSKA Beata 69GRUDZIĄDZK-Open36K 3600:00:0700:27:41.5500:27:48.70+00:10:095:3210.8
147WIŚNIEWSKI Jacek 116BYDGOSZCZM-Open111M 11100:00:4600:27:41.8500:28:27.85+00:10:095:3210.8
148TUBISZ Szymon 19BYDGOSZCZM-Open112M 11200:00:2800:27:47.0000:28:15.30+00:10:145:3310.8
149BOROWICZ Małgorzata 222BYDGOSZCZK-Open37K 3700:00:1900:27:49.9000:28:09.30+00:10:175:3410.8
150JANCZUKOWICZ Ryszard 319KORONOWOM-Open113M 11300:00:3200:27:51.3500:28:24.20+00:10:185:3410.8
151ROJEWSKI Jarosław 252KS BEMAROWKIBYDGOSZCZM-Open114M 11400:00:3800:27:56.6500:28:35.30+00:10:245:3510.7
152LENKIEWICZ Andrzej 217PIĘKNYBĄDKIM-Open115M 11500:00:1400:27:57.9500:28:12.65+00:10:255:3510.7
153PRZYBYLSKA Grażyna 294SLKB, BYDGOSZCZ NA STARTBYDGOSZCZK-Open38K 3800:00:3800:27:58.8000:28:37.00+00:10:265:3510.7
154WITKOWSKA Katarzyna 207BYDGOSZCZK-Open39K 3900:00:3800:27:59.6500:28:38.30+00:10:275:3610.7
155WITKOWSKI Błażej 23BYDGOSZCZM-Open116M 11600:00:4200:28:04.9500:28:47.60+00:10:325:3710.7
156PEJPA Piotr 315BYDGOSZCZM-Open117M 11700:00:3100:28:06.9000:28:38.55+00:10:345:3710.7
157LEWANDOWSKA Monika 393BYDGOSZCZK-Open40K 4000:00:2500:28:07.7500:28:32.80+00:10:355:3710.7
158JACKOWIAK-ZALEWSKA Agnieszka 427BYDGOSZCZK-Open41K 4100:00:1300:28:07.8000:28:21.75+00:10:355:3710.7
159ŁUKASZEWSKA Grażyna 218BYDGOSZCZK-Open42K 4200:00:2300:28:12.3500:28:35.80+00:10:395:3810.6
160ROSZAK Tomasz 368DECATLON TEAM INOWROCŁAWPŁAWINEKM-Open118M 11800:00:1000:28:14.0000:28:24.30+00:10:415:3810.6
161FOLARZYŃSKI Łukasz 259INOWROCŁAWM-Open119M 11900:00:1200:28:14.6000:28:26.80+00:10:425:3810.6
162DOBOSIEWICZ Anna Maria 74BYDGOSZCZK-Open43K 4300:00:1900:28:14.8500:28:34.45+00:10:425:3910.6
163PAWLEWSKA Joanna 121SPORTWAYBYDGOSZCZK-Open44K 4400:00:1700:28:16.0500:28:34.00+00:10:435:3910.6
164TREPANOWSKI Tomasz 157PRZYŁĘKIM-Open120M 12000:00:3500:28:16.8000:28:52.60+00:10:445:3910.6
165WERKOWSKA Justyna 163BYDGOSZCZK-Open45K 4500:00:1800:28:18.4500:28:36.70+00:10:455:3910.6
166JELEŃ Agnieszka 415VEGE RUNNERSBYDGOSZCZK-Open46K 4600:00:3600:28:20.7500:28:57.65+00:10:485:4010.6
167KOCHAŃSKA Wioletta 89PATEREKK-Open47K 4700:00:1000:28:23.8000:28:34.00+00:10:515:4010.6
168KONICZYŃSKA Zuzanna 451K-Open48K 4800:00:0700:28:25.5500:28:33.05+00:10:535:4110.6
169SZATKOWSKA Beata 132BYDGOSZCZK-Open49K 4900:00:5000:28:26.0000:29:16.60+00:10:535:4110.6
170WACHULEC Bartosz 246BYDGOSZCZM-Open121M 12100:00:1500:28:28.2500:28:43.50+00:10:555:4110.5
171TYLKOWSKA Marta 137BYDGOSZCZK-Open50K 5000:00:3400:28:28.7000:29:03.30+00:10:565:4110.5
172STAROŃ Monika 225BYDGOSKIE ŻÓŁWIEBYDGOSZCZK-Open51K 5100:00:1000:28:29.8500:28:40.05+00:10:575:4210.5
173 459  100:00:3900:28:31.3500:29:10.35+00:10:585:4210.5
174CISZEWSKA Emilia 266BYDGOSZCZK-Open52K 5200:00:1300:28:34.2500:28:47.60+00:11:015:4210.5
175OLEJNICZAK Patrycja 250OSIĘCINYK-Open53K 5300:00:2800:28:47.2000:29:15.35+00:11:145:4510.4
176DYWICKA Karolina 70BIAŁE BŁOTAK-Open54K 5400:00:1600:28:47.2500:29:04.10+00:11:145:4510.4
177KRYŚ Jacek 1DĄBROWA CHEŁMIŃSKAM-Open122M 12200:00:2200:28:47.8500:29:10.65+00:11:155:4510.4
178KORDZIELEWSKA Sandra 378BYDGOSZCZK-Open55K 5500:00:5500:28:50.1000:29:45.25+00:11:175:4610.4
179MRELA Adrian 334BYDGOSZCZM-Open123M 12300:00:3100:28:50.1500:29:21.55+00:11:175:4610.4
180KUBIAK-KUJAWA Joanna 184BYDGOSZCZK-Open56K 5600:00:2600:28:52.0500:29:18.20+00:11:195:4610.4
181NELKE Monika 34BYDGOSZCZK-Open57K 5700:00:4500:28:53.0000:29:38.15+00:11:205:4610.4
182BORAKIEWICZ Przemysław 416GOŁAŃCZM-Open124M 12400:00:2900:28:53.2500:29:22.95+00:11:205:4610.4
183WAJER Marita 42ŚLESINK-Open58K 5800:00:2200:29:00.1000:29:22.15+00:11:275:4810.3
184TUSZYŃSKA Anna 318ŚWIECIEK-Open59K 5900:00:1000:29:01.9000:29:12.60+00:11:295:4810.3
185FRYDRYCHOWICZ Lilianna 75BYDGOSZCZK-Open60K 6000:00:2100:29:03.4000:29:25.10+00:11:305:4810.3
186BUKOWINSKA Grażyna 402BYDGOSZCZK-Open61K 6100:00:2100:29:07.8000:29:29.05+00:11:355:4910.3
187MENDLIK Bernard 268KU AZS UKW BYDGOSZCZOSIELSKOM-Open125M 12500:00:2600:29:08.0500:29:34.80+00:11:355:4910.3
188PIOTROWSKA Małgorzata 110ACHI&GOCHIŚWIECIEK-Open62K 6200:00:1900:29:08.1000:29:27.80+00:11:355:4910.3
189POTRZEBOWSKI Marek 76DEAFBYDGOSZCZM-Open126M 12600:00:0900:29:10.7000:29:20.60+00:11:385:5010.3
190CHYLIŃSKA Dorota 442K-Open63K 6300:00:2400:29:10.8000:29:35.40+00:11:385:5010.3
191SZEFLIŃSKI Waldemar 114BYDGOSZCZM-Open127M 12700:00:1800:29:13.0000:29:31.00+00:11:405:5010.3
192KUFLEWICZ Justyna 194BYDGOSZCZK-Open64K 6400:00:3800:29:19.9000:29:58.40+00:11:475:5210.2
193KUBICKA Olga 407BYDGOSZCZK-Open65K 6500:00:2400:29:25.9500:29:50.45+00:11:535:5310.2
194KRETOWICZ Piotr 302NIEMCZM-Open128M 12800:00:4700:29:28.9500:30:15.95+00:11:565:5310.2
195WIOSNA Tomasz 209BYDGOSZCZM-Open129M 12900:00:4800:29:31.8500:30:20.05+00:11:595:5410.2
196KAŹMIERCZAK Gosia 227BYDGOSZCZK-Open66K 6600:00:4800:29:32.0500:30:20.80+00:11:595:5410.2
197KILIŃSKA Magdalena 106HELIX POMATIAŻOŁĘDOWOK-Open67K 6700:00:1200:29:32.1500:29:44.70+00:11:595:5410.2
198ALEKSANDER Alicja 214POTULICEK-Open68K 6800:00:4700:29:32.6500:30:20.50+00:12:005:5410.2
199STRZAŁKOWSKA-WARMUZ Iwona 9BYDGOSZCZK-Open69K 6900:00:1700:29:34.5000:29:52.05+00:12:015:5510.1
200GIPP Małgorzata 305BYDGOSZCZK-Open70K 7000:00:4200:29:35.4500:30:17.90+00:12:025:5510.1
201KORBEL Ewa 119BYDGOSZCZK-Open71K 7100:00:3600:29:41.4500:30:17.65+00:12:085:5610.1
202NOWAK Mariola 92BYDGOSZCZK-Open72K 7200:00:2300:29:44.0500:30:07.50+00:12:115:5610.1
203BORAKIEWICZ Agnieszka 417GOŁAŃCZK-Open73K 7300:00:2900:29:45.6000:30:15.15+00:12:135:5710.1
204GÓRSKA Agnieszka 269BYDGOSZCZK-Open74K 7400:00:2800:29:47.0000:30:15.90+00:12:145:5710.1
205RUDOWICZ Marcin 191BYDGOSZCZM-Open130M 13000:00:2400:29:50.7000:30:15.45+00:12:185:5810.1
206SMOCZYŃSKA Agnieszka 171BYDGOSZCZK-Open75K 7500:00:3300:29:51.1500:30:24.30+00:12:185:5810.1
207NALEWALSKA Justyna 422SERCE TYBETUBYDGOSZCZK-Open76K 7600:00:3900:29:51.8000:30:31.40+00:12:195:5810
208AUGUSTYNOWICZ Aurelia 321RCI BYDGOSZCZBYDGOSZCZK-Open77K 7700:00:1000:29:51.8500:30:02.75+00:12:195:5810
209WALCZAK Joanna 299ŚWIECIEK-Open78K 7800:00:3700:29:56.5500:30:34.00+00:12:245:5910
210NIKOŁAJCZYK Lukasz 281SWIECIEM-Open131M 13100:00:3600:29:57.8000:30:34.40+00:12:255:5910
211BRZOZOWSKI Marek 365BYDGOSZCZM-Open132M 13200:00:2600:30:00.0500:30:26.50+00:12:276:0010
212TYKWIŃSKA Agnieszka 107BYDGOSZCZK-Open79K 7900:00:2100:30:00.5500:30:22.30+00:12:286:0010
213BRZOZOWSKA Jolanta 364BYDGOSZCZK-Open80K 8000:00:2400:30:01.7000:30:26.50+00:12:296:0010
214BORKOWSKI Paweł 272BYDGOSZCZM-Open133M 13300:00:2900:30:02.0000:30:31.20+00:12:296:0010
215KURZAWA Iwona 254KCYNIAK-Open81K 8100:00:2800:30:02.3500:30:30.90+00:12:296:0010
216BUCHOLC Martyna 389BYDGOSZCZK-Open82K 8200:00:1400:30:04.0000:30:18.30+00:12:316:0010
217FRELICHOWSKA Karolina 36CB163BYDGOSZCZK-Open83K 8300:00:4100:30:08.3500:30:50.20+00:12:356:0110
218KUTKA Czesia 241BYDGOSZCZK-Open84K 8400:00:2800:30:09.0500:30:37.95+00:12:366:0110
219SOBOTA Beata 16BIAŁE BŁOTAK-Open85K 8500:00:3400:30:14.3500:30:49.05+00:12:416:039.9
220GWORYS Marcin 411PIŁAM-Open134M 13400:00:2200:30:15.9000:30:38.35+00:12:436:039.9
221KOWALSKA Justyna 216BYDGOSZCZK-Open86K 8600:00:2600:30:17.6000:30:44.50+00:12:456:039.9
222JARMOŁOWICZ Aleksandra 351BYDGOSZCZK-Open87K 8700:00:5100:30:18.0500:31:09.55+00:12:456:039.9
223KOWALSKI Konrad 367PŁOCKM-Open135M 13500:00:4000:30:19.6500:31:00.05+00:12:476:049.9
224KUŹNIAR Patryk 104BYDGOSZCZM-Open136M 13600:00:1400:30:21.9000:30:36.70+00:12:496:049.9
225PIOTROWICZ Ewa 454K-Open88K 8800:00:2500:30:22.5500:30:48.05+00:12:506:049.9
226KOTŁOWSKA Marlena 285KWIDZYNK-Open89K 8900:00:2200:30:22.8000:30:45.40+00:12:506:049.9
227FRISCHKE Agnieszka 29BYDGOSZCZK-Open90K 9000:00:4300:30:23.6000:31:07.20+00:12:516:049.9
228KOSZOWSKA Ania 32BYDGOSZCZK-Open91K 9100:00:4300:30:26.2500:31:10.00+00:12:536:059.9
229ANDRZEJEWSKI Jakub 388BYDGOSZCZM-Open137M 13700:00:1300:30:27.3000:30:40.30+00:12:546:059.9
230WAŁCZYK Iwona 436PRZYŁUBIEK-Open92K 9200:00:3600:30:31.2500:31:08.20+00:12:586:069.8
231WEGNER Karolina 435SOLEC KUJAWSKIK-Open93K 9300:00:3600:30:31.4000:31:08.05+00:12:586:069.8
232DRZEWIECKA Magdalena 443K-Open94K 9400:00:2500:30:32.9500:30:58.60+00:13:006:069.8
233JAROSZEWSKI Wojciech 228DEEP FORESTTRYSZCZYNM-Open138M 13800:00:4600:30:32.9500:31:19.65+00:13:006:069.8
234GRUSZKA Marek 317MAKSYMILIANOWOM-Open139M 13900:00:2300:30:34.4500:30:57.70+00:13:016:069.8
235PRZYBYLSKA Paulina 48BYDGOSZCZK-Open95K 9500:00:3900:30:36.5500:31:16.15+00:13:046:079.8
236IWICKI Andrzej 239BYDGOSZCZM-Open140M 14000:00:1900:30:36.7000:30:56.10+00:13:046:079.8
237GRUŻEWSKA Justyna 117BYDGOSZCZK-Open96K 9600:00:1400:30:37.8500:30:51.85+00:13:056:079.8
238KUŹNIAR Melisa 249BYDGOSZCZK-Open97K 9700:00:1400:30:37.9500:30:52.45+00:13:056:079.8
239ŁABUŚ Maciej 4BYDGOSZCZM-Open141M 14100:00:1300:30:39.6000:30:53.55+00:13:076:089.8
240GURZYŃSKA Anna 240KOSOWIZNAK-Open98K 9800:00:1500:30:40.3000:30:55.85+00:13:076:089.8
241KONDEK Igor 464M-Open142M 14200:00:4200:30:45.8500:31:28.80+00:13:136:099.8
242ŚWIDERSKA Aleksandra 304BYDGOSZCZK-Open99K 9900:00:3400:30:46.9000:31:21.20+00:13:146:099.7
243KIELIK Monika 47MONIKA KIELIKBOBROWNIKIK-Open100K 10000:00:2400:30:48.3000:31:13.00+00:13:156:099.7
244PRZYBYSZEWSKI Marcin 344OSIELSKOM-Open143M 14300:00:1400:30:49.1500:31:03.65+00:13:166:099.7
245NAPIÓRKOWSKA Ewa 146BUDGOSZCZK-Open101K 10100:00:2100:30:54.4500:31:16.35+00:13:216:119.7
246JAGIELSKA Patrycja 397KOTOMIERZK-Open102K 10200:00:1300:30:55.6000:31:08.95+00:13:236:119.7
247GIEŁDON Adrian 343MAKSYMILIANOWOM-Open144M 14400:00:1600:30:56.1000:31:12.15+00:13:236:119.7
248HELSZTAJN Anna 340MAKSYMILIANOWOK-Open103K 10300:00:1600:30:56.2500:31:12.75+00:13:236:119.7
249WAWRZYNIAK Anna 341BYDGOSZCZK-Open104K 10400:00:1600:30:56.7500:31:13.55+00:13:246:119.7
250MAŃKOWSKA Kamila 339BYDGOSZCZK-Open105K 10500:00:1500:30:57.0000:31:12.80+00:13:246:119.7
251KIWIOR Michał 109MŁODE DZIKIŁOCHOWOM-Open145M 14500:00:4100:30:58.2000:31:39.40+00:13:256:119.7
252SZEWCZYK Ola 206LUCIEŃK-Open106K 10600:00:4100:30:58.5000:31:39.60+00:13:256:119.7
253CYBUL Anna 390BYDGOSZCZK-Open107K 10700:00:1600:31:07.7000:31:24.25+00:13:356:139.6
254ŁABUŚ Magda 410KORNELINK-Open108K 10800:00:2100:31:07.8000:31:29.10+00:13:356:139.6
255LEWANDOWSKI Marek 85KRUSZWICAM-Open146M 14600:00:3600:31:08.1500:31:45.00+00:13:356:139.6
256SAK Anna 336DECATHLON TEAM INOWROCŁAWINOWROCŁAWK-Open109K 10900:00:3000:31:08.5000:31:39.20+00:13:356:139.6
257GRALAK Jacek 1658 KPBWOT/JS 1386BYDGOSZCZM-Open147M 14700:00:4300:31:09.5000:31:52.65+00:13:366:139.6
258KONDEK Jakub 463M-Open148M 14800:00:4600:31:09.5000:31:55.70+00:13:366:139.6
259WRÓBLEWSKA Maja 253BYDGOSZCZK-Open110K 11000:00:2700:31:10.2500:31:38.05+00:13:376:149.6
260JASIULEWICZ Marta 306BYDGOSZCZK-Open111K 11100:00:2500:31:14.4500:31:39.50+00:13:416:149.6
261KUBIAK Agnieszka 160BYDGOSZCZK-Open112K 11200:00:1700:31:17.6000:31:35.55+00:13:456:159.6
262CZERNIEJEWSKA Monika 126BYDGOSZCZK-Open113K 11300:00:1100:31:22.7000:31:34.30+00:13:506:169.6
263JANKOWSKI Dariusz 127BYDGOSZCZM-Open149M 14900:00:1100:31:22.8000:31:34.75+00:13:506:169.6
264NOWACKA Aleksandra 420BYDGOSZCZK-Open114K 11400:00:4500:31:25.2500:32:11.15+00:13:526:179.5
265GIERCZAK Dorota 82BYDGOSZCZK-Open115K 11500:00:3900:31:27.5500:32:06.60+00:13:556:179.5
266KRAJEWSKA Izabela 166SICIENKOK-Open116K 11600:00:3900:31:30.7500:32:09.85+00:13:586:189.5
267KRUKOWSKI Rafał 186INOWROCŁAWM-Open150M 15000:00:1500:31:30.8000:31:46.10+00:13:586:189.5
268ZATOŃ Bożena 354RUN PASJABYDGOSZCZK-Open117K 11700:00:4100:31:33.7500:32:14.85+00:14:016:189.5
269PESTKA Anna 387BYDGOSZCZK-Open118K 11800:00:3300:31:36.0500:32:09.55+00:14:036:199.5
270PIÓRKOWSKA Aga 49BYDGOSZCZK-Open119K 11900:00:4700:31:37.2000:32:24.45+00:14:046:199.5
271JAROSZEWSKA Anna 229DEEP FORESTTRYSZCZYNK-Open120K 12000:00:4600:31:37.6000:32:24.35+00:14:056:199.5
272ROSIAK Aleksandra 433MAKSYMILIANOWOK-Open121K 12100:00:3500:31:39.8000:32:15.50+00:14:076:209.5
273PAPROCKA Małgorzata 15BYDGOSZCZK-Open122K 12200:00:2800:31:44.9500:32:13.60+00:14:126:219.4
274NOVAKOVIĆ Maja 434WARSZAWAK-Open123K 12300:00:2200:31:47.9000:32:09.95+00:14:156:219.4
275OŻGA Agnieszka 24BYDGOSZCZK-Open124K 12400:00:3900:31:48.7500:32:28.10+00:14:166:219.4
276ŚLEDZIŃSKA Paulina 248OSIELSKOK-Open125K 12500:00:3300:31:50.4000:32:23.40+00:14:176:229.4
277KOWALIK Anna 308BYDGOSZCZK-Open126K 12600:00:1500:31:53.8000:32:08.90+00:14:216:229.4
278DUDZIAK Michał 12CPR BYDGOSZCZBYDGOSZCZM-Open151M 15100:00:3900:31:55.7000:32:35.05+00:14:236:239.4
279SZERWIŃSKI Mateusz 195BYDGOSZCZM-Open152M 15200:00:5100:31:58.2500:32:49.90+00:14:256:239.4
280TATERA Daria 55BYDGOSZCZK-Open127K 12700:00:1800:31:59.4500:32:18.35+00:14:266:249.4
281THIEDE Ola 130ŚWIECIEK-Open128K 12800:00:0000:32:04.0000:32:04.00+00:14:316:249.4
282FOSS Dorota 392LEGE ARTISBYDGOSZCZK-Open129K 12900:00:4000:32:08.0000:32:48.60+00:14:356:259.3
283DALKA Renata 78GRUDZIĄDZK-Open130K 13000:00:0700:32:09.8500:32:17.10+00:14:376:269.3
284GOLIK Krzysztof 168BYDGOSZCZM-Open153M 15300:00:4900:32:17.7500:33:07.15+00:14:456:279.3
285BEDNAREK Grażyna 446RUN PASJAK-Open131K 13100:00:4100:32:19.4000:33:01.15+00:14:466:289.3
286KORBEL Marian 444M-Open154M 15400:00:3700:32:22.0500:32:59.20+00:14:496:289.3
287WROŃSKI Piotr 349BYDGOSZCZM-Open155M 15500:00:3500:32:22.7500:32:57.85+00:14:506:289.3
288KWIATKOWSKA Aleksandra 348BYDGOSZCZK-Open132K 13200:00:3400:32:23.5500:32:57.95+00:14:516:289.3
289TREPANOWSKA Katarzyna 50PRZYŁEKIK-Open133K 13300:00:3500:32:25.2500:33:01.15+00:14:526:299.2
290DUKAT Olga 400BYDGOSZCZK-Open134K 13400:00:1100:32:34.0500:32:45.40+00:15:016:309.2
291PALUSZAK Katarzyna 83INOWROCŁAWK-Open135K 13500:00:3500:32:35.9000:33:11.20+00:15:036:319.2
292FILIPEK Weronika 204BYDGOSZCZK-Open136K 13600:00:3200:32:41.6500:33:14.10+00:15:096:329.2
293KUJAWA Magdalena 282GOŚCIERADZK-Open137K 13700:00:4300:32:44.6000:33:28.45+00:15:126:339.2
294KONOWALSKA Agnieszka 406ŻNINK-Open138K 13800:00:2000:32:48.6000:33:08.90+00:15:166:339.1
295WYSOCKA Kamila 17BYDGOSZCZK-Open139K 13900:00:3100:32:54.4500:33:25.60+00:15:216:349.1
296NEVECHERIA Yanina 310BYDGOSZCZK-Open140K 14000:00:0700:32:57.1500:33:04.80+00:15:246:359.1
297GENDERKA Krzysztof 6STUDIO SZARKOWSKA&GENDERKABYDGOSZCZM-Open156M 15600:00:2200:32:57.2000:33:20.10+00:15:246:359.1
298SZABLICKA Katarzyna 66POLSKA GRUPA BIEGOWAGRUDZIĄDZK-Open141K 14100:00:1300:32:57.8500:33:11.55+00:15:256:359.1
299PODCZASKA Katarzyna 25ALEKSANDRÓW KUJAWSKIK-Open142K 14200:00:1400:32:58.2500:33:12.25+00:15:256:359.1
300KROPIŃSKA Monika 329ZAMOŚĆK-Open143K 14300:00:2600:32:59.9500:33:26.70+00:15:276:369.1
301ZIELIŃSKA Dorota 257BYDGOSZCZK-Open144K 14400:00:2400:33:02.3000:33:26.60+00:15:296:369.1
302SOBIERAJ Magdalena 101GRUDZIĄDZK-Open145K 14500:00:1000:33:09.4500:33:20.15+00:15:366:389
303JEGIERSKA Anna 62AMATORKAGRUDZIĄDZK-Open146K 14600:00:1000:33:09.5500:33:20.40+00:15:376:389
304KUBALEWSKA Grażyna 245BYDGOSZCZK-Open147K 14700:00:2300:33:11.6500:33:35.15+00:15:396:389
305LEWANDOWSKI Piotr 213BYDGOSZCZM-Open157M 15700:00:3200:33:19.0500:33:51.75+00:15:466:399
306KOWALSKA Karolina 377BYDGOSZCZK-Open148K 14800:00:3500:33:19.3000:33:54.80+00:15:466:399
307KOWALSKA Irena 193BYDGOSZCZK-Open149K 14900:00:3400:33:19.6500:33:54.45+00:15:476:409
308LEWANDOWSKA Beata 212BYDGOSZCZK-Open150K 15000:00:3100:33:21.9000:33:53.25+00:15:496:409
309MIELCAREK Ania 314BYDGOSZCZK-Open151K 15100:00:5000:33:32.1000:34:22.60+00:15:596:428.9
310PIOTROWICZ Karolina 455K-Open152K 15200:00:2500:33:38.4500:34:04.40+00:16:056:438.9
311GURYN Wiktor 396ZIELONY PELIKANBYDGOSZCZM-Open158M 15800:00:3100:33:39.5500:34:10.55+00:16:076:438.9
312KALACHURKA Wioletta 277ŚWIECIE NAD OSĄK-Open153K 15300:00:1800:33:44.7500:34:03.00+00:16:126:458.9
313DAGOW Justyna 276CHEŁMNOK-Open154K 15400:00:1800:33:44.9000:34:03.10+00:16:126:458.9
314TROCKA Agnieszka 148BYDGOSZCZK-Open155K 15500:00:3000:33:50.5500:34:21.25+00:16:186:468.9
315SZCZYPIŃSKA Justyna 271BYDGOSZCZK-Open156K 15600:00:1100:33:55.3500:34:07.25+00:16:226:478.8
316GLINKOWSKA Joanna 149STRZELCE GÓRNEK-Open157K 15700:00:3000:34:13.4500:34:44.00+00:16:406:508.8
317BURCZUK Aleksandra 448K-Open158K 15800:00:3000:34:20.3500:34:50.45+00:16:476:528.7
318TUBISZ Agnieszka 18BYDGOSZCZK-Open159K 15900:00:2700:34:22.2500:34:49.65+00:16:496:528.7
319MINISZEWSKA Irena 394BYDGOSZCZK-Open160K 16000:00:4000:34:22.6500:35:02.85+00:16:506:528.7
320IWICKA-KOWALSKA Katarzyna 175BYDGOSZCZK-Open161K 16100:00:1700:34:30.4500:34:47.60+00:16:576:548.7
321NOWACKA Katarzyna 424BYDGOSZCZK-Open162K 16200:00:4600:34:30.8500:35:17.60+00:16:586:548.7
322NOGALSKA Aleksandra 303BYDGOSZCZK-Open163K 16300:00:3500:34:35.9000:35:11.20+00:17:036:558.7
323OLSZEWSKA Karolina 20BIAŁE BŁOTAK-Open164K 16400:00:3100:34:36.2500:35:07.45+00:17:036:558.7
324JAWORSKA Sylwia 332ŁABISZYNK-Open165K 16500:00:2400:34:39.3500:35:03.70+00:17:066:558.7
325KAMIŃSKA Marta 290NAKŁO NAD NOTECIĄK-Open166K 16600:00:4300:34:43.6500:35:27.55+00:17:116:568.6
326MISUN Mariola 258BBKTSZIELONKAK-Open167K 16700:00:4400:34:47.5500:35:32.45+00:17:156:578.6
327REKOWSKA Barbara 141KORONOWOK-Open168K 16800:00:4000:34:49.1500:35:29.40+00:17:166:578.6
328WELSBERG Magdalena 288BYDGOSZCZK-Open169K 16900:00:2900:34:52.1500:35:21.35+00:17:196:588.6
329MOCNA Anna 215BYDGOSZCZK-Open170K 17000:00:2900:34:55.5000:35:25.30+00:17:226:598.6
330SCHLABS Magdalena 93BYDGOSZCZK-Open171K 17100:00:2900:34:56.0500:35:25.25+00:17:236:598.6
331ANDRZEJCZAK Natalia 201KCYNIAK-Open172K 17200:00:3000:35:01.2000:35:31.60+00:17:287:008.6
332NOWAKOWSKA-ARENDT Agnieszka 5BYDGOSZCZK-Open173K 17300:00:1700:35:04.9000:35:22.20+00:17:327:018.6
333BRONK Justyna 457K-Open174K 17400:00:2300:35:05.9000:35:29.60+00:17:337:018.5
334PIECZARA Iwona 458K-Open175K 17500:00:2300:35:07.5000:35:30.95+00:17:347:018.5
335WRÓBLEWSKA Anna 72GRUDZIĄDZK-Open176K 17600:00:1000:35:21.8500:35:32.45+00:17:497:048.5
336KĄTNIK Dorota 220RUN PASJABYDGOSZCZK-Open177K 17700:00:3900:35:23.5500:36:03.45+00:17:517:048.5
337RAJSKI Józef 432BYDGOSZCZM-Open159M 15900:00:3000:35:27.6000:35:57.70+00:17:557:058.5
338MAZUREK Anita 8BYDGOSZCZK-Open178K 17800:00:4500:35:32.1000:36:17.20+00:17:597:068.4
339JUREK Sławomir 95FUNDACJA HORYZONTZŁOTNIKI KUJAWSKIEM-Open160M 16000:00:3800:35:32.6000:36:10.65+00:18:007:068.4
340MANOWSKA Arletta 94FUNDACJA HORYZONTBRZOZAK-Open179K 17900:00:3800:35:32.8500:36:11.35+00:18:007:068.4
341KUBICKA Violetta 41BYDGOSZCZK-Open180K 18000:00:4300:35:33.1000:36:16.95+00:18:007:068.4
342KEMPA Arkadiusz 419BYDGOSZCZM-Open161M 16100:00:4300:35:33.8500:36:17.10+00:18:017:068.4
343KISZKA Justyna 398RUN PASJABYDGOSZCZK-Open181K 18100:00:4100:35:35.3500:36:17.15+00:18:027:078.4
344CIECHOMSKA Magdalena 73TORUŃK-Open182K 18200:00:0900:35:38.0000:35:47.00+00:18:057:078.4
345SKROBACKA Izabela 52SOLEC KUJAWSKIK-Open183K 18300:00:2000:35:38.0000:35:58.20+00:18:057:078.4
346KNIOŁA Justyna 162STUDIO SZARKOWSKA & GENDERKABYDGOSZCZK-Open184K 18400:00:5000:35:43.0500:36:33.10+00:18:107:088.4
347KONOWECKA Ewa 429BYDGOSZCZK-Open185K 18500:00:2900:35:50.2000:36:19.30+00:18:177:108.4
348CHMIELEWSKI Tomasz 238BYDGOSZCZM-Open162M 16200:00:4800:35:50.5000:36:39.15+00:18:177:108.4
349KANTOWICZ Marta 129BYDGOSZCZK-Open186K 18600:00:4800:35:50.8500:36:39.30+00:18:187:108.4
350GAWRONEK Maria 183BYDGOSZCZK-Open187K 18700:00:4800:35:51.0000:36:39.30+00:18:187:108.4
351OPAS Karolina 404BYDGOSZCZK-Open188K 18800:00:2400:35:53.9500:36:18.30+00:18:217:108.4
352NOWAKOWSKA Patrycja 51MUROWANIECK-Open189K 18900:00:4000:36:13.4000:36:54.10+00:18:407:148.3
353GRZELAKOWSKA Klaudyna 283OSIELSKOK-Open190K 19000:00:3200:36:15.4500:36:47.70+00:18:427:158.3
354POKORSKA Roma 391BYDGOSZCZK-Open191K 19100:00:4000:36:28.1000:37:08.30+00:18:557:178.2
355POKORSKI Tomasz 379BYDOSZCZM-Open163M 16300:00:4000:36:28.2500:37:08.55+00:18:557:178.2
356ASTUKIEWICZ Agnieszka 100BYDGOSZCZK-Open192K 19200:00:4400:36:36.7500:37:21.35+00:19:047:198.2
357ASTUKIEWICZ Tomasz 99BYDGOSZCZM-Open164M 16400:00:4400:36:37.7500:37:21.90+00:19:057:198.2
358PIECHOWIAK Oliwia 224SZUBINK-Open193K 19300:00:1700:36:43.6000:37:00.60+00:19:117:208.2
359CHMIELEWSKA Agnieszka 325BYDGOSZCZK-Open194K 19400:00:4000:36:45.4000:37:26.00+00:19:127:218.2
360NAZARUK Natalia 382BYDGOSZCZK-Open195K 19500:00:3300:37:04.3000:37:38.10+00:19:317:258.1
361OSUCH Małgorzata 152BYDGOSZCZK-Open196K 19600:00:4400:37:41.5000:38:26.00+00:20:087:328
362BARANOWSKA Weronika 331ŁABISZYNK-Open197K 19700:00:2500:37:48.2000:38:13.40+00:20:157:337.9
363WIOSNA Krzysztof 462M-Open165M 16500:00:4700:37:55.2500:38:42.90+00:20:227:357.9
364PAWLAK Tomasz 461M-Open166M 16600:00:3300:38:07.4500:38:40.45+00:20:347:377.9
365WITKOWSKA Marta 452K-Open198K 19800:00:3200:38:07.6000:38:40.45+00:20:357:377.9
366LIPKA Józef 359BYDGOSZCZM-Open167M 16700:01:0800:38:07.8000:39:16.25+00:20:357:377.9
367ROZWOROWSKA-WOLAŃSKA Julia 226BYDGOSZCZK-Open199K 19900:00:3900:38:15.1000:38:54.70+00:20:427:397.8
368WENCKA Magdalena 190BYDGOSZCZK-Open200K 20000:00:3800:38:16.7500:38:55.00+00:20:447:397.8
369NEYDER Marzena 309BYDGOSZCZK-Open201K 20100:00:0900:38:21.1500:38:30.20+00:20:487:407.8
370SARUL Karolina 151BYDGOSZCZK-Open202K 20200:00:4400:38:53.3000:39:37.95+00:21:207:467.7
371GOLIK Magdalena 169BYDGOSZCZK-Open203K 20300:00:4900:39:33.6000:40:22.75+00:22:017:547.6
372URBAŃCZYK Anna 28BYDGOSZCZK-Open204K 20400:00:3300:40:27.5000:41:01.40+00:22:548:057.4
373RÓŻYCKA Katarzyna 87TOCOLUBIEJÓZEFOSŁAWK-Open205K 20500:00:3300:40:28.0500:41:01.40+00:22:558:057.4
374TOMCZAK Krzysia 408ŁOCHOWOK-Open206K 20600:00:4200:41:46.4000:42:28.80+00:24:138:217.2
375KIWIOR Jurek 409ŁOCHOWOM-Open168M 16800:00:4200:41:48.7000:42:30.80+00:24:168:217.2
Znaleziono 375 wynik(ów)